[[{"header":{"parameterUnit":"m.s-1","parameterCategory":1,"la1":30.2991,"la2":30.254,"lo1":-89.0895,"lo2":-89.0444,"dy":0.0017,"dx":0.0017,"nx":28,"ny":28,"refTime":"2024-09-28T21:00:00:Z","depth":0,"parameterNumber":2,"parameterNumberName":"U-component_of_WINDS"},"data":[0,0,0,0,0,0,0,0,0,0,0,0,0,0,0,0,0,0,0,0,0,0,0,0,0,0,0,0,0,0,0,0,0,0,0,0,0,0,0,0,0,0,0,0,0,0,0,0,0,0,0,0,0,0,0,0,0,0,2.4675,2.4675,0,2.4712,2.4713,2.4713,2.4659,2.4657,2.4655,2.4653,2.4695,2.4698,2.4701,0,0,0,0,0,0,0,0,0,0,0,0,0,2.4559,2.4561,2.4675,2.4675,2.4675,2.4712,2.4713,2.4713,2.4659,2.4657,2.4655,2.4652,2.4694,2.4698,2.4701,0,0,0,0,0,0,0,0,0,0,0,0,0,2.4604,2.4562,2.4674,2.4653,2.4651,2.4712,2.4713,2.4714,2.466,2.4657,2.4654,2.4651,2.4693,2.4698,2.4702,2.4787,0,0,2.4715,2.4717,0,0,0,0,0,0,0,0,2.4602,2.4609,2.4656,2.4654,2.4653,2.4678,2.4688,2.4738,2.466,2.4657,2.4653,2.465,2.4692,2.4696,2.471,2.4789,2.4791,2.4716,2.4718,2.472,2.4722,0,0,0,0,0,0,0,2.4599,2.4607,2.469,2.4656,2.4655,2.4642,2.4646,2.4697,2.469,2.4657,2.4653,2.4658,2.4691,2.4706,2.4711,2.4791,2.4716,2.472,2.4722,2.4724,2.4944,2.4947,0,0,0,0,0,0,2.4598,2.4604,2.4688,2.4691,2.462,2.4647,2.465,2.4673,2.469,2.4689,2.466,2.4655,2.47,2.4706,2.4712,2.4813,2.472,2.4724,2.4727,2.494,2.4944,2.4948,0,0,0,0,0,0,2.4595,2.4606,2.4687,2.4647,2.4656,2.4652,2.4677,2.4675,2.469,2.4692,2.4691,2.4677,2.4698,2.4706,2.4769,2.4814,2.4726,2.473,2.4937,2.4942,2.4946,2.5017,0,0,0,0,0,0,2.4592,2.4605,2.4637,2.4648,2.4658,2.4742,2.468,2.4678,2.4697,2.4691,2.4707,2.4707,2.4696,2.4763,2.4773,2.4819,2.4734,2.4933,2.4939,2.4944,2.501,2.5023,2.5035,0,0,0,0,0,2.4588,2.4655,2.4638,2.4649,2.4697,2.4745,2.4751,2.4736,2.4701,2.4733,2.4735,2.4707,2.4807,2.4769,2.4781,2.4828,2.493,2.4937,2.4944,2.5005,2.5021,2.5034,0,0,0,0,0,0,2.4651,2.4656,2.4638,2.471,2.4727,2.4735,2.4775,2.4753,2.4781,2.4774,2.4755,2.476,2.4827,2.4834,2.4792,2.4912,2.4863,2.4873,2.4905,2.4921,2.4932,2.493,2.4737,0,0,0,0,0,2.4673,2.471,2.4713,2.4777,2.4786,2.478,2.48,2.4787,2.4804,2.4812,2.4818,2.4837,2.4873,2.4897,2.493,2.5011,2.5015,2.505,2.5062,2.5071,2.5081,2.5125,2.5141,2.4971,2.4971,2.4971,0,0,2.4719,2.4727,2.4751,2.479,2.4801,2.4842,2.4786,2.4831,2.4861,2.4819,2.4878,2.4884,2.4904,2.4977,2.5009,2.4985,2.5128,2.5081,2.5089,2.5092,2.5134,2.515,2.5165,2.4976,2.4975,2.4975,0,0,2.4824,2.4833,2.4887,2.49,2.4918,2.4913,2.4927,2.4939,2.494,2.5,2.4969,2.5005,2.5067,2.5083,2.51,2.5212,2.5187,2.5223,2.5286,2.533,2.5344,2.5355,2.5396,2.5411,2.5232,2.5232,2.5232,0,2.4879,2.4937,2.4918,2.4965,2.4983,2.4946,2.5002,2.5016,2.5045,2.5059,2.5031,2.5108,2.5119,2.5196,2.5223,2.5237,2.5253,2.5221,2.5343,2.5354,2.5365,2.5404,2.542,2.5236,2.5236,2.5235,2.5235,0,2.5005,2.5046,2.5088,2.5115,2.5138,2.519,2.518,2.5206,2.5191,2.519,2.5252,2.5264,2.5299,2.5316,2.5302,2.5391,2.5376,2.5346,2.5296,2.5386,2.5422,2.5437,2.5242,2.5241,2.524,2.5238,0,0,2.515,2.5167,2.5182,2.5195,2.5213,2.5245,2.5295,2.5329,2.5352,2.5373,2.5416,2.547,2.5442,2.5461,2.5448,2.5487,2.5576,2.5452,2.5452,2.5476,2.5676,2.5699,2.5717,2.556,2.5562,2.5565,2.5675,0,2.5255,2.534,2.5325,2.5409,2.5447,2.5413,2.5457,2.5474,2.5474,2.5508,2.5508,2.5547,2.5507,2.5518,2.5555,2.5557,2.5616,2.5549,2.5601,2.5603,2.5597,2.5736,2.576,2.5863,2.5689,2.5691,2.5693,0,2.5389,2.5414,2.5502,2.5514,2.553,2.5569,2.56,2.5632,2.565,2.5648,2.5669,2.565,2.5702,2.5651,2.5723,2.5677,2.5698,2.5702,2.5706,2.5711,2.5654,2.5745,2.5896,2.5912,2.5715,2.5713,2.5712,0,2.5487,2.5543,2.5603,2.5615,2.5631,2.566,2.5668,2.5683,2.5705,2.5732,2.5746,2.5779,2.5797,2.5824,2.5815,2.5779,2.589,2.5837,2.589,2.5891,2.5916,2.5914,2.6073,2.5928,2.5927,2.5927,2.5927,0,2.5606,2.5661,2.5647,2.5684,2.5745,2.5728,2.579,2.5794,2.5808,2.5847,2.5819,2.5856,2.5841,2.5878,2.5871,2.5933,2.5941,2.5942,2.5939,2.5944,2.5945,2.5958,2.5951,2.5931,2.593,2.5929,2.5929,0,2.5726,2.5719,2.5782,2.5792,2.5796,2.5841,2.585,2.5885,2.5883,2.5932,2.5943,2.5941,2.5982,2.5976,2.6022,2.6017,2.6094,2.6083,2.6088,2.6085,2.6139,2.6135,2.6312,2.6335,2.6175,2.6176,2.6177,0,2.5803,2.5845,2.5859,2.5882,2.5892,2.593,2.5952,2.5937,2.5961,2.5986,2.6019,2.6058,2.6088,2.6156,2.6159,2.6195,2.6185,2.6245,2.619,2.6194,2.6187,2.6185,2.619,2.6256,2.6258,2.6259,2.626,0,2.5941,2.5935,2.5967,2.5998,2.6025,2.6049,2.607,2.6091,2.6079,2.6107,2.6149,2.6172,2.6219,2.6259,2.6292,2.6302,2.628,2.6277,2.6292,2.6298,2.6299,2.63,2.6118,2.6274,2.6272,2.6271,2.6271,2.627,2.6042,2.6078,2.6094,2.6131,2.6145,2.6166,2.62,2.6203,2.6237,2.6273,2.6262,2.631,2.6329,2.6371,2.6385,2.6423,2.6401,2.6422,2.6427,2.6433,2.644,2.6293,2.6429,2.6429,2.6428,2.6428,2.6428,0,2.618,2.6188,2.6222,2.6253,2.6282,2.6257,2.628,2.6307,2.6349,2.6368,2.6398,2.6446,2.6485,2.6491,2.6528,2.6557,2.6548,2.6568,2.6566,2.6569,2.6456,2.6441,2.6575,2.6575,2.6575,2.6574,2.6574,2.6574,2.6255,2.6314,2.6311,2.6378,2.6386,2.6431,2.6447,2.6467,2.6482,2.6537,2.6568,2.6572,2.6586,2.6624,2.6659,2.666,2.6675,2.6699,2.6696,2.6591,2.6577,2.6563,2.6548,2.6702,2.6702,2.6805,2.6806,2.6807]},{"header":{"parameterUnit":"m.s-1","parameterCategory":1,"la1":30.2991,"la2":30.254,"lo1":-89.0895,"lo2":-89.0444,"dy":0.0017,"dx":0.0017,"nx":28,"ny":28,"refTime":"2024-09-28T21:00:00:Z","depth":0,"parameterNumber":3,"parameterNumberName":"V-component_of_WINDS"},"data":[0,0,0,0,0,0,0,0,0,0,0,0,0,0,0,0,0,0,0,0,0,0,0,0,0,0,0,0,0,0,0,0,0,0,0,0,0,0,0,0,0,0,0,0,0,0,0,0,0,0,0,0,0,0,0,0,0,0,0.2818,0.2817,0,0.2776,0.2776,0.2775,0.2749,0.2749,0.2748,0.2748,0.2706,0.2705,0.2704,0,0,0,0,0,0,0,0,0,0,0,0,0,0.2874,0.2873,0.2818,0.2817,0.2817,0.2776,0.2775,0.2775,0.2749,0.2748,0.2748,0.2748,0.2706,0.2705,0.2704,0,0,0,0,0,0,0,0,0,0,0,0,0,0.2843,0.2873,0.2818,0.2799,0.2797,0.2776,0.2775,0.2775,0.2749,0.2748,0.2748,0.2748,0.2706,0.2705,0.2703,0.2699,0,0,0.2699,0.2698,0,0,0,0,0,0,0,0,0.2845,0.2841,0.2802,0.28,0.2797,0.2767,0.278,0.2749,0.2749,0.2767,0.2748,0.2748,0.2726,0.2723,0.2716,0.2697,0.2695,0.2699,0.2698,0.2697,0.2697,0,0,0,0,0,0,0,0.2847,0.2843,0.2801,0.2801,0.2799,0.2792,0.2787,0.2774,0.2748,0.2765,0.2763,0.2759,0.2725,0.2717,0.2715,0.2694,0.2699,0.2697,0.2696,0.2696,0.2669,0.2669,0,0,0,0,0,0,0.2852,0.2845,0.2802,0.28,0.2821,0.2791,0.2786,0.2777,0.2748,0.2744,0.2759,0.2758,0.272,0.2716,0.2713,0.2706,0.2697,0.2696,0.2695,0.2669,0.2669,0.2669,0,0,0,0,0,0,0.2853,0.2849,0.2804,0.2822,0.2815,0.2791,0.2781,0.2777,0.2769,0.2744,0.2739,0.2756,0.272,0.2715,0.2702,0.2704,0.2695,0.2694,0.2669,0.2669,0.2669,0.2691,0,0,0,0,0,0,0.2855,0.2849,0.2847,0.2822,0.2815,0.2794,0.2781,0.2776,0.2766,0.2764,0.2739,0.2735,0.2719,0.2705,0.2701,0.2702,0.2693,0.2669,0.2669,0.2669,0.269,0.2692,0.2694,0,0,0,0,0,0.2857,0.2855,0.2847,0.2842,0.2812,0.2795,0.279,0.2772,0.2767,0.2764,0.2748,0.2736,0.2704,0.2704,0.2699,0.2699,0.2668,0.2669,0.2669,0.2689,0.2692,0.2693,0,0,0,0,0,0,0.2881,0.2851,0.2842,0.2832,0.2816,0.279,0.2787,0.2775,0.276,0.2759,0.2737,0.2732,0.2721,0.2709,0.2709,0.2693,0.2685,0.2684,0.2702,0.2704,0.2705,0.2709,0.2691,0,0,0,0,0,0.2885,0.2874,0.2848,0.2842,0.2834,0.2812,0.2804,0.2791,0.2774,0.2767,0.275,0.2733,0.2719,0.2711,0.2697,0.2688,0.2682,0.2686,0.2688,0.2689,0.2689,0.2684,0.2685,0.2671,0.2671,0.2671,0,0,0.2894,0.2876,0.287,0.2846,0.2832,0.2821,0.2806,0.2795,0.2786,0.2765,0.2752,0.2739,0.2719,0.2708,0.2703,0.2698,0.2692,0.269,0.2691,0.269,0.2684,0.2685,0.2687,0.2671,0.2671,0.2671,0,0,0.2903,0.2888,0.2881,0.2867,0.2847,0.2832,0.283,0.2806,0.2797,0.2783,0.2767,0.2756,0.2733,0.272,0.271,0.2714,0.2702,0.271,0.2719,0.2714,0.2715,0.2716,0.2718,0.2718,0.271,0.271,0.271,0,0.2916,0.2898,0.2879,0.2868,0.2858,0.2838,0.283,0.2818,0.2794,0.2787,0.2782,0.2753,0.2738,0.2724,0.2725,0.2718,0.2715,0.2713,0.2717,0.2717,0.2718,0.2719,0.272,0.2711,0.2711,0.2711,0.2711,0,0.2915,0.2903,0.2899,0.2876,0.2866,0.2857,0.2836,0.2828,0.2816,0.2802,0.2788,0.277,0.2752,0.2748,0.2736,0.2732,0.273,0.2721,0.2712,0.2721,0.2721,0.2722,0.2713,0.2712,0.2712,0.2712,0,0,0.2938,0.2904,0.2903,0.2893,0.2868,0.2859,0.2849,0.2831,0.2825,0.2809,0.28,0.2781,0.2772,0.2761,0.2748,0.2744,0.2748,0.2735,0.2735,0.2738,0.2742,0.2749,0.275,0.274,0.274,0.274,0.2744,0,0.2943,0.2924,0.2907,0.2894,0.2883,0.2864,0.2855,0.284,0.2826,0.2815,0.28,0.2787,0.2777,0.277,0.2765,0.2749,0.2748,0.2748,0.2732,0.2731,0.2737,0.275,0.2757,0.2761,0.2744,0.2744,0.2744,0,0.2947,0.2932,0.2919,0.2895,0.289,0.2882,0.2865,0.2854,0.2836,0.2826,0.2814,0.28,0.2789,0.2781,0.2765,0.2765,0.2757,0.2749,0.2748,0.2746,0.2738,0.2748,0.2762,0.2763,0.2744,0.2744,0.2744,0,0.2965,0.2941,0.293,0.2922,0.2894,0.289,0.2878,0.2859,0.285,0.2835,0.2828,0.2812,0.2803,0.2791,0.2772,0.2769,0.2758,0.2749,0.275,0.2751,0.2749,0.2749,0.2762,0.2744,0.2744,0.2744,0.2744,0,0.2973,0.2965,0.2938,0.2931,0.2922,0.2902,0.2893,0.288,0.2864,0.2854,0.2837,0.2828,0.2805,0.2793,0.2779,0.2768,0.2764,0.2756,0.2752,0.2758,0.2759,0.2752,0.2751,0.2744,0.2744,0.2744,0.2744,0,0.2991,0.2973,0.2959,0.2935,0.2928,0.2923,0.2901,0.2894,0.288,0.2868,0.2864,0.2841,0.2826,0.2807,0.2787,0.2777,0.2768,0.2762,0.2774,0.2772,0.2774,0.2774,0.2783,0.2783,0.2765,0.2766,0.2766,0,0.2997,0.2991,0.2966,0.2958,0.2947,0.2935,0.2925,0.2905,0.2896,0.2874,0.287,0.2854,0.284,0.2818,0.28,0.2784,0.2777,0.2782,0.2775,0.278,0.2777,0.2778,0.2777,0.2783,0.2784,0.2784,0.2784,0,0.301,0.3001,0.2988,0.2972,0.2961,0.2947,0.2932,0.2926,0.2903,0.2894,0.2879,0.2868,0.2847,0.2832,0.2813,0.2801,0.2789,0.2786,0.2786,0.2791,0.2798,0.2794,0.2779,0.2786,0.2786,0.2786,0.2786,0.2786,0.3023,0.3016,0.2997,0.2983,0.297,0.2957,0.2949,0.2933,0.292,0.2902,0.2891,0.2876,0.2858,0.2832,0.2821,0.2809,0.2804,0.2804,0.2803,0.2803,0.2805,0.28,0.2806,0.2806,0.2806,0.2806,0.2806,0,0.3034,0.3021,0.3009,0.2989,0.2977,0.2967,0.295,0.2941,0.2929,0.2913,0.29,0.2883,0.2867,0.2848,0.2832,0.2826,0.282,0.2823,0.2823,0.282,0.281,0.2813,0.2828,0.2828,0.2828,0.2828,0.2828,0.2828,0.3039,0.3028,0.3017,0.2999,0.2986,0.2971,0.2963,0.295,0.2938,0.2919,0.2907,0.2894,0.2877,0.2859,0.2845,0.284,0.2834,0.2839,0.2832,0.2823,0.2821,0.2819,0.2821,0.2838,0.2838,0.2842,0.2842,0.2843]}]]